Time,TemperatureF,DewpointF,PressureIn,WindDirection,WindDirectionDegrees,WindSpeedMPH,WindSpeedGustMPH,Humidity,HourlyPrecipIn,Conditions,Clouds,dailyrainin,SolarRadiationWatts/m^2,SoftwareType,DateUTC
2013-07-03 00:01:00,73.0,68.6,30.19,SW,215,0.0,0.0,86,0.00,,,0.00,0,Wunderground v.1.15,2013-07-03 04:01:00,
2013-07-03 00:02:00,73.0,68.2,30.19,SW,215,0.0,0.0,85,0.00,,,0.00,0,Wunderground v.1.15,2013-07-03 04:02:00,
2013-07-03 00:04:00,73.0,68.6,30.19,SW,215,0.0,0.0,86,0.00,,,0.00,0,Wunderground v.1.15,2013-07-03 04:04:00,
2013-07-03 00:05:00,73.0,68.6,30.19,SW,214,0.0,0.0,86,0.00,,,0.00,0,Wunderground v.1.15,2013-07-03 04:05:00,
2013-07-03 00:10:00,72.9,68.5,30.19,SW,215,0.0,0.0,86,0.00,,,0.00,0,Wunderground v.1.15,2013-07-03 04:10:00,
2013-07-03 00:12:00,72.8,68.4,30.19,SW,215,0.0,0.0,86,0.00,,,0.00,0,Wunderground v.1.15,2013-07-03 04:12:00,
2013-07-03 00:18:00,72.7,68.3,30.19,SW,215,0.0,0.0,86,0.00,,,0.00,0,Wunderground v.1.15,2013-07-03 04:18:00,
2013-07-03 00:24:00,72.6,68.2,30.19,SW,215,0.0,0.0,86,0.00,,,0.00,0,Wunderground v.1.15,2013-07-03 04:24:00,
2013-07-03 00:29:00,72.5,68.1,30.19,SW,215,0.0,0.0,86,0.00,,,0.00,0,Wunderground v.1.15,2013-07-03 04:29:00,
2013-07-03 00:35:00,72.5,68.1,30.20,SW,215,0.0,0.0,86,0.00,,,0.00,0,Wunderground v.1.15,2013-07-03 04:35:00,
2013-07-03 00:41:00,72.4,68.0,30.20,SW,215,0.0,0.0,86,0.00,,,0.00,0,Wunderground v.1.15,2013-07-03 04:41:00,
2013-07-03 00:45:00,72.4,68.3,30.20,SW,215,0.0,0.0,87,0.00,,,0.00,0,Wunderground v.1.15,2013-07-03 04:45:00,
2013-07-03 00:46:00,72.3,67.9,30.20,SW,215,0.0,0.0,86,0.00,,,0.00,0,Wunderground v.1.15,2013-07-03 04:46:00,
2013-07-03 00:51:00,72.2,67.8,30.20,SW,214,0.0,0.0,86,0.00,,,0.00,0,Wunderground v.1.15,2013-07-03 04:51:00,
2013-07-03 00:56:00,72.1,68.0,30.20,SW,215,0.0,0.0,87,0.00,,,0.00,0,Wunderground v.1.15,2013-07-03 04:56:00,
2013-07-03 00:59:00,72.2,67.8,30.20,SW,214,0.0,0.0,86,0.00,,,0.00,0,Wunderground v.1.15,2013-07-03 04:59:00,
2013-07-03 01:05:00,72.0,67.9,30.20,SW,215,0.0,0.0,87,0.00,,,0.00,0,Wunderground v.1.15,2013-07-03 05:05:00,
2013-07-03 01:11:00,71.9,67.8,30.20,SW,215,0.0,0.0,87,0.00,,,0.00,0,Wunderground v.1.15,2013-07-03 05:11:00,
2013-07-03 01:15:00,71.8,67.7,30.20,SW,215,0.0,0.0,87,0.00,,,0.00,0,Wunderground v.1.15,2013-07-03 05:15:00,
2013-07-03 01:21:00,71.7,68.0,30.19,SW,215,0.0,0.0,88,0.00,,,0.00,0,Wunderground v.1.15,2013-07-03 05:21:00,
2013-07-03 01:25:00,71.7,68.0,30.19,SW,215,0.0,0.0,88,0.00,,,0.00,0,Wunderground v.1.15,2013-07-03 05:25:00,
2013-07-03 01:30:00,71.5,67.8,30.19,SW,215,0.0,0.0,88,0.00,,,0.00,0,Wunderground v.1.15,2013-07-03 05:30:00,
2013-07-03 01:35:00,71.4,67.7,30.19,SSW,213,0.0,0.0,88,0.00,,,0.00,0,Wunderground v.1.15,2013-07-03 05:35:00,
2013-07-03 01:40:00,71.4,67.7,30.20,SSW,213,0.0,0.0,88,0.00,,,0.00,0,Wunderground v.1.15,2013-07-03 05:40:00,
2013-07-03 01:47:00,71.3,67.6,30.19,SSW,213,0.0,0.0,88,0.00,,,0.00,0,Wunderground v.1.15,2013-07-03 05:47:00,
2013-07-03 01:52:00,71.2,67.1,30.20,SSW,213,0.0,0.0,87,0.00,,,0.00,0,Wunderground v.1.15,2013-07-03 05:52:00,
2013-07-03 01:57:00,71.1,67.0,30.20,SSW,213,0.0,0.0,87,0.00,,,0.00,0,Wunderground v.1.15,2013-07-03 05:57:00,
2013-07-03 01:59:00,71.0,67.3,30.19,South,191,0.0,0.0,88,0.00,,,0.00,0,Wunderground v.1.15,2013-07-03 05:59:00,
2013-07-03 02:01:00,71.1,67.0,30.19,SSW,192,0.0,0.0,87,0.00,,,0.00,0,Wunderground v.1.15,2013-07-03 06:01:00,
2013-07-03 02:03:00,71.1,67.4,30.19,South,191,0.0,0.0,88,0.00,,,0.00,0,Wunderground v.1.15,2013-07-03 06:03:00,
2013-07-03 02:08:00,71.0,67.3,30.19,South,191,0.0,0.0,88,0.00,,,0.00,0,Wunderground v.1.15,2013-07-03 06:08:00,
2013-07-03 02:13:00,71.0,67.3,30.19,South,191,0.0,0.0,88,0.00,,,0.00,0,Wunderground v.1.15,2013-07-03 06:13:00,
2013-07-03 02:16:00,71.0,66.9,30.19,SSW,192,0.0,1.0,87,0.00,,,0.00,0,Wunderground v.1.15,2013-07-03 06:16:00,
2013-07-03 02:18:00,71.0,66.9,30.19,SSW,192,0.0,1.0,87,0.00,,,0.00,0,Wunderground v.1.15,2013-07-03 06:18:00,
2013-07-03 02:22:00,70.9,67.2,30.19,South,186,0.0,0.0,88,0.00,,,0.00,0,Wunderground v.1.15,2013-07-03 06:22:00,
2013-07-03 02:24:00,70.9,67.2,30.19,South,186,0.0,0.0,88,0.00,,,0.00,0,Wunderground v.1.15,2013-07-03 06:24:00,
2013-07-03 02:26:00,70.9,67.2,30.19,South,186,0.0,0.0,88,0.00,,,0.00,0,Wunderground v.1.15,2013-07-03 06:26:00,
2013-07-03 02:31:00,70.8,67.1,30.19,South,187,0.0,0.0,88,0.00,,,0.00,0,Wunderground v.1.15,2013-07-03 06:31:00,
2013-07-03 02:34:00,70.8,67.1,30.19,South,186,0.0,0.0,88,0.00,,,0.00,0,Wunderground v.1.15,2013-07-03 06:34:00,
2013-07-03 02:40:00,70.8,67.1,30.19,South,187,0.0,0.0,88,0.00,,,0.00,0,Wunderground v.1.15,2013-07-03 06:40:00,
2013-07-03 02:44:00,70.8,67.1,30.18,South,187,0.0,0.0,88,0.00,,,0.00,0,Wunderground v.1.15,2013-07-03 06:44:00,
2013-07-03 02:49:00,70.7,67.0,30.19,South,186,0.0,0.0,88,0.00,,,0.00,0,Wunderground v.1.15,2013-07-03 06:49:00,
2013-07-03 02:55:00,70.6,66.9,30.19,South,187,0.0,2.0,88,0.00,,,0.00,0,Wunderground v.1.15,2013-07-03 06:55:00,
2013-07-03 02:56:00,70.6,66.9,30.19,South,187,0.0,2.0,88,0.00,,,0.00,0,Wunderground v.1.15,2013-07-03 06:56:00,
2013-07-03 03:01:00,70.6,66.9,30.19,SSE,166,0.0,4.0,88,0.00,,,0.00,0,Wunderground v.1.15,2013-07-03 07:01:00,
2013-07-03 03:07:00,70.5,66.8,30.19,SSE,166,1.0,4.0,88,0.00,,,0.00,0,Wunderground v.1.15,2013-07-03 07:07:00,
2013-07-03 03:12:00,70.6,66.9,30.19,SSE,166,0.0,4.0,88,0.00,,,0.00,0,Wunderground v.1.15,2013-07-03 07:12:00,
2013-07-03 03:16:00,70.5,66.8,30.19,South,177,3.0,4.0,88,0.00,,,0.00,0,Wunderground v.1.15,2013-07-03 07:16:00,
2013-07-03 03:21:00,70.6,66.9,30.19,SSW,195,0.0,0.0,88,0.00,,,0.00,0,Wunderground v.1.15,2013-07-03 07:21:00,
2013-07-03 03:26:00,70.6,66.9,30.19,SSW,195,0.0,1.0,88,0.00,,,0.00,0,Wunderground v.1.15,2013-07-03 07:26:00,
2013-07-03 03:32:00,70.5,66.8,30.19,SSW,196,1.0,3.0,88,0.00,,,0.00,0,Wunderground v.1.15,2013-07-03 07:32:00,
2013-07-03 03:37:00,70.5,66.8,30.19,SSW,196,0.0,3.0,88,0.00,,,0.00,0,Wunderground v.1.15,2013-07-03 07:37:00,
2013-07-03 03:39:00,70.5,66.8,30.19,SSW,195,0.0,3.0,88,0.00,,,0.00,0,Wunderground v.1.15,2013-07-03 07:39:00,
2013-07-03 03:45:00,70.5,66.8,30.19,SSW,195,2.0,2.0,88,0.00,,,0.00,0,Wunderground v.1.15,2013-07-03 07:45:00,
2013-07-03 03:51:00,70.5,66.8,30.19,South,189,0.0,0.0,88,0.00,,,0.00,0,Wunderground v.1.15,2013-07-03 07:51:00,
2013-07-03 03:56:00,70.4,66.7,30.19,South,187,0.0,4.0,88,0.00,,,0.00,0,Wunderground v.1.15,2013-07-03 07:56:00,
2013-07-03 04:02:00,70.4,66.7,30.19,South,187,1.0,1.0,88,0.00,,,0.00,0,Wunderground v.1.15,2013-07-03 08:02:00,
2013-07-03 04:04:00,70.3,66.6,30.19,South,187,0.0,1.0,88,0.00,,,0.00,0,Wunderground v.1.15,2013-07-03 08:04:00,
2013-07-03 04:06:00,70.3,66.6,30.19,South,187,0.0,4.0,88,0.00,,,0.00,0,Wunderground v.1.15,2013-07-03 08:06:00,
2013-07-03 04:11:00,70.2,66.5,30.19,South,187,0.0,1.0,88,0.00,,,0.00,0,Wunderground v.1.15,2013-07-03 08:11:00,
2013-07-03 04:14:00,70.2,66.5,30.19,South,187,0.0,1.0,88,0.00,,,0.00,0,Wunderground v.1.15,2013-07-03 08:14:00,
2013-07-03 04:18:00,70.2,66.5,30.19,South,188,0.0,3.0,88,0.00,,,0.00,0,Wunderground v.1.15,2013-07-03 08:18:00,
2013-07-03 04:24:00,70.3,66.6,30.19,South,190,0.0,3.0,88,0.00,,,0.00,0,Wunderground v.1.15,2013-07-03 08:24:00,
2013-07-03 04:30:00,70.1,66.4,30.19,South,191,1.0,1.0,88,0.00,,,0.00,0,Wunderground v.1.15,2013-07-03 08:30:00,
2013-07-03 04:35:00,70.0,66.3,30.20,South,190,0.0,2.0,88,0.00,,,0.00,0,Wunderground v.1.15,2013-07-03 08:35:00,
2013-07-03 04:39:00,70.1,66.4,30.20,South,190,0.0,2.0,88,0.00,,,0.00,0,Wunderground v.1.15,2013-07-03 08:39:00,
2013-07-03 04:44:00,70.1,66.4,30.20,South,189,0.0,2.0,88,0.00,,,0.00,0,Wunderground v.1.15,2013-07-03 08:44:00,
2013-07-03 04:45:00,70.1,66.0,30.20,South,188,0.0,2.0,87,0.00,,,0.00,0,Wunderground v.1.15,2013-07-03 08:45:00,
2013-07-03 04:50:00,70.0,66.3,30.20,South,189,0.0,0.0,88,0.00,,,0.00,0,Wunderground v.1.15,2013-07-03 08:50:00,
2013-07-03 04:55:00,70.1,66.4,30.20,South,189,0.0,1.0,88,0.00,,,0.00,0,Wunderground v.1.15,2013-07-03 08:55:00,
2013-07-03 05:00:00,70.1,66.4,30.20,South,188,0.0,0.0,88,0.00,,,0.00,0,Wunderground v.1.15,2013-07-03 09:00:00,
2013-07-03 05:05:00,70.0,66.3,30.20,South,188,1.0,1.0,88,0.00,,,0.00,0,Wunderground v.1.15,2013-07-03 09:05:00,
2013-07-03 05:11:00,70.1,66.4,30.20,South,188,0.0,2.0,88,0.00,,,0.00,0,Wunderground v.1.15,2013-07-03 09:11:00,
2013-07-03 05:16:00,70.2,66.5,30.20,South,187,0.0,2.0,88,0.00,,,0.00,0,Wunderground v.1.15,2013-07-03 09:16:00,
2013-07-03 05:21:00,70.2,66.5,30.20,South,187,0.0,3.0,88,0.00,,,0.00,0,Wunderground v.1.15,2013-07-03 09:21:00,
2013-07-03 05:27:00,70.2,66.5,30.20,South,187,0.0,3.0,88,0.00,,,0.00,0,Wunderground v.1.15,2013-07-03 09:27:00,
2013-07-03 05:32:00,70.1,66.4,30.20,South,187,0.0,0.0,88,0.00,,,0.00,0,Wunderground v.1.15,2013-07-03 09:32:00,
2013-07-03 05:37:00,70.2,66.5,30.20,South,187,0.0,0.0,88,0.00,,,0.00,0,Wunderground v.1.15,2013-07-03 09:37:00,
2013-07-03 05:41:00,70.3,66.6,30.21,South,187,0.0,0.0,88,0.00,,,0.00,0,Wunderground v.1.15,2013-07-03 09:41:00,
2013-07-03 05:46:00,70.3,66.6,30.20,South,187,0.0,3.0,88,0.00,,,0.00,0,Wunderground v.1.15,2013-07-03 09:46:00,
2013-07-03 05:51:00,70.4,66.7,30.21,South,187,0.0,0.0,88,0.00,,,0.00,0,Wunderground v.1.15,2013-07-03 09:51:00,
2013-07-03 05:52:00,70.4,66.7,30.21,South,187,0.0,0.0,88,0.00,,,0.00,0,Wunderground v.1.15,2013-07-03 09:52:00,
2013-07-03 05:57:00,70.4,66.7,30.21,South,187,1.0,1.0,88,0.00,,,0.00,0,Wunderground v.1.15,2013-07-03 09:57:00,
2013-07-03 06:02:00,70.5,66.4,30.21,South,184,0.0,1.0,87,0.00,,,0.00,0,Wunderground v.1.15,2013-07-03 10:02:00,
2013-07-03 06:04:00,70.6,66.9,30.21,South,185,0.0,1.0,88,0.00,,,0.00,0,Wunderground v.1.15,2013-07-03 10:04:00,
2013-07-03 06:05:00,70.5,66.8,30.21,South,184,0.0,1.0,88,0.00,,,0.00,0,Wunderground v.1.15,2013-07-03 10:05:00,
2013-07-03 06:10:00,70.7,67.0,30.21,South,184,0.0,0.0,88,0.00,,,0.00,0,Wunderground v.1.15,2013-07-03 10:10:00,
2013-07-03 06:15:00,70.7,67.0,30.21,South,182,0.0,2.0,88,0.00,,,0.00,0,Wunderground v.1.15,2013-07-03 10:15:00,
2013-07-03 06:21:00,70.8,67.1,30.22,South,182,0.0,0.0,88,0.00,,,0.00,0,Wunderground v.1.15,2013-07-03 10:21:00,
2013-07-03 06:26:00,70.9,67.2,30.22,SSW,194,0.0,2.0,88,0.00,,,0.00,0,Wunderground v.1.15,2013-07-03 10:26:00,
2013-07-03 06:31:00,71.0,67.3,30.22,SSW,193,0.0,1.0,88,0.00,,,0.00,0,Wunderground v.1.15,2013-07-03 10:31:00,
2013-07-03 06:37:00,71.2,67.5,30.22,SSW,193,0.0,1.0,88,0.00,,,0.00,0,Wunderground v.1.15,2013-07-03 10:37:00,
2013-07-03 06:42:00,71.4,67.7,30.22,SE,140,4.0,4.0,88,0.00,,,0.00,0,Wunderground v.1.15,2013-07-03 10:42:00,
2013-07-03 06:47:00,71.8,68.1,30.22,SE,140,0.0,4.0,88,0.00,,,0.00,0,Wunderground v.1.15,2013-07-03 10:47:00,
2013-07-03 06:49:00,71.7,68.0,30.22,SE,140,2.0,4.0,88,0.00,,,0.00,0,Wunderground v.1.15,2013-07-03 10:49:00,
2013-07-03 06:54:00,72.0,68.2,30.22,SE,140,2.0,3.0,88,0.00,,,0.00,0,Wunderground v.1.15,2013-07-03 10:54:00,
2013-07-03 06:55:00,72.0,68.2,30.23,SE,140,0.0,3.0,88,0.00,,,0.00,0,Wunderground v.1.15,2013-07-03 10:55:00,
2013-07-03 06:57:00,72.2,68.4,30.22,SE,140,1.0,3.0,88,0.00,,,0.00,0,Wunderground v.1.15,2013-07-03 10:57:00,
2013-07-03 07:02:00,72.5,68.4,30.22,SE,138,0.0,3.0,87,0.00,,,0.00,0,Wunderground v.1.15,2013-07-03 11:02:00,
2013-07-03 07:07:00,72.9,68.8,30.22,SE,138,0.0,3.0,87,0.00,,,0.00,0,Wunderground v.1.15,2013-07-03 11:07:00,
2013-07-03 07:09:00,73.0,68.9,30.22,SE,138,0.0,3.0,87,0.00,,,0.00,0,Wunderground v.1.15,2013-07-03 11:09:00,
2013-07-03 07:12:00,73.2,69.1,30.22,SE,141,2.0,3.0,87,0.00,,,0.00,0,Wunderground v.1.15,2013-07-03 11:12:00,
2013-07-03 07:17:00,73.6,69.5,30.23,SE,141,0.0,3.0,87,0.00,,,0.00,0,Wunderground v.1.15,2013-07-03 11:17:00,
2013-07-03 07:19:00,73.8,69.7,30.23,SE,135,2.0,3.0,87,0.00,,,0.00,0,Wunderground v.1.15,2013-07-03 11:19:00,
2013-07-03 07:24:00,74.0,69.9,30.23,ESE,121,1.0,4.0,87,0.00,,,0.00,0,Wunderground v.1.15,2013-07-03 11:24:00,
2013-07-03 07:25:00,74.0,69.9,30.23,ESE,121,0.0,4.0,87,0.00,,,0.00,0,Wunderground v.1.15,2013-07-03 11:25:00,
2013-07-03 07:30:00,74.3,69.8,30.23,ESE,121,2.0,3.0,86,0.00,,,0.00,0,Wunderground v.1.15,2013-07-03 11:30:00,
2013-07-03 07:35:00,74.7,70.2,30.23,ESE,122,2.0,4.0,86,0.00,,,0.00,0,Wunderground v.1.15,2013-07-03 11:35:00,
2013-07-03 07:40:00,75.0,70.2,30.23,ESE,121,1.0,5.0,85,0.00,,,0.00,0,Wunderground v.1.15,2013-07-03 11:40:00,
2013-07-03 07:46:00,75.3,70.1,30.23,ESE,122,1.0,5.0,84,0.00,,,0.00,0,Wunderground v.1.15,2013-07-03 11:46:00,
2013-07-03 07:51:00,75.4,70.2,30.23,ESE,121,2.0,2.0,84,0.00,,,0.00,0,Wunderground v.1.15,2013-07-03 11:51:00,
2013-07-03 07:56:00,75.4,69.9,30.23,ESE,121,1.0,4.0,83,0.00,,,0.00,0,Wunderground v.1.15,2013-07-03 11:56:00,
2013-07-03 07:59:00,75.4,69.9,30.23,ESE,122,1.0,4.0,83,0.00,,,0.00,0,Wunderground v.1.15,2013-07-03 11:59:00,
2013-07-03 08:02:00,75.5,70.0,30.23,SE,125,0.0,3.0,83,0.00,,,0.00,0,Wunderground v.1.15,2013-07-03 12:02:00,
2013-07-03 08:07:00,76.0,70.1,30.23,SE,125,3.0,4.0,82,0.00,,,0.00,0,Wunderground v.1.15,2013-07-03 12:07:00,
2013-07-03 08:12:00,76.5,70.6,30.23,SE,128,0.0,4.0,82,0.00,,,0.00,0,Wunderground v.1.15,2013-07-03 12:12:00,
2013-07-03 08:13:00,76.6,70.7,30.23,SE,128,0.0,4.0,82,0.00,,,0.00,0,Wunderground v.1.15,2013-07-03 12:13:00,
2013-07-03 08:16:00,76.7,70.4,30.23,SE,128,0.0,4.0,81,0.00,,,0.00,0,Wunderground v.1.15,2013-07-03 12:16:00,
2013-07-03 08:21:00,77.3,70.6,30.23,SE,128,0.0,1.0,80,0.00,,,0.00,0,Wunderground v.1.15,2013-07-03 12:21:00,
2013-07-03 08:26:00,77.8,70.4,30.23,SE,128,1.0,3.0,78,0.00,,,0.00,0,Wunderground v.1.15,2013-07-03 12:26:00,
2013-07-03 08:31:00,78.2,70.4,30.23,SE,127,4.0,4.0,77,0.00,,,0.00,0,Wunderground v.1.15,2013-07-03 12:31:00,
2013-07-03 08:36:00,78.4,70.2,30.23,SE,127,0.0,4.0,76,0.00,,,0.00,0,Wunderground v.1.15,2013-07-03 12:36:00,
2013-07-03 08:41:00,78.6,70.0,30.23,SE,127,1.0,1.0,75,0.00,,,0.00,0,Wunderground v.1.15,2013-07-03 12:41:00,
2013-07-03 08:46:00,79.1,70.5,30.23,SE,128,2.0,4.0,75,0.00,,,0.00,0,Wunderground v.1.15,2013-07-03 12:46:00,
2013-07-03 08:52:00,78.9,69.9,30.24,SE,133,0.0,2.0,74,0.00,,,0.00,0,Wunderground v.1.15,2013-07-03 12:52:00,
2013-07-03 08:57:00,79.0,70.4,30.24,SE,134,0.0,2.0,75,0.00,,,0.00,0,Wunderground v.1.15,2013-07-03 12:57:00,
2013-07-03 09:02:00,79.1,70.5,30.24,SE,130,0.0,4.0,75,0.00,,,0.00,0,Wunderground v.1.15,2013-07-03 13:02:00,
2013-07-03 09:08:00,79.4,70.8,30.24,ESE,102,0.0,4.0,75,0.00,,,0.00,0,Wunderground v.1.15,2013-07-03 13:08:00,
2013-07-03 09:13:00,79.8,70.8,30.23,ESE,102,0.0,6.0,74,0.00,,,0.00,0,Wunderground v.1.15,2013-07-03 13:13:00,
2013-07-03 09:18:00,80.1,70.7,30.23,ESE,111,2.0,6.0,73,0.00,,,0.00,0,Wunderground v.1.15,2013-07-03 13:18:00,
2013-07-03 09:23:00,80.4,71.3,30.23,ESE,109,0.0,4.0,74,0.00,,,0.00,0,Wunderground v.1.15,2013-07-03 13:23:00,
2013-07-03 09:25:00,80.7,71.6,30.24,ESE,110,1.0,4.0,74,0.00,,,0.00,0,Wunderground v.1.15,2013-07-03 13:25:00,
2013-07-03 09:30:00,80.7,71.6,30.23,South,173,2.0,3.0,74,0.00,,,0.00,0,Wunderground v.1.15,2013-07-03 13:30:00,
2013-07-03 09:35:00,80.7,71.6,30.24,SSW,203,0.0,3.0,74,0.00,,,0.00,0,Wunderground v.1.15,2013-07-03 13:35:00,
2013-07-03 09:37:00,80.9,71.8,30.24,South,188,4.0,4.0,74,0.00,,,0.00,0,Wunderground v.1.15,2013-07-03 13:37:00,
2013-07-03 09:43:00,80.9,71.4,30.24,SSE,147,2.0,5.0,73,0.00,,,0.00,0,Wunderground v.1.15,2013-07-03 13:43:00,
2013-07-03 09:48:00,81.4,71.9,30.24,SSE,148,0.0,5.0,73,0.00,,,0.00,0,Wunderground v.1.15,2013-07-03 13:48:00,
2013-07-03 09:53:00,81.8,71.9,30.24,SE,132,4.0,5.0,72,0.00,,,0.00,0,Wunderground v.1.15,2013-07-03 13:53:00,
2013-07-03 09:59:00,81.9,72.0,30.24,SE,133,0.0,5.0,72,0.00,,,0.00,0,Wunderground v.1.15,2013-07-03 13:59:00,
2013-07-03 10:04:00,82.2,72.3,30.24,SE,132,4.0,5.0,72,0.00,,,0.00,0,Wunderground v.1.15,2013-07-03 14:04:00,
2013-07-03 10:06:00,82.1,71.8,30.24,SE,129,1.0,5.0,71,0.00,,,0.00,0,Wunderground v.1.15,2013-07-03 14:06:00,
2013-07-03 10:09:00,82.4,71.6,30.24,SE,133,3.0,7.0,70,0.00,,,0.00,0,Wunderground v.1.15,2013-07-03 14:09:00,
2013-07-03 10:14:00,82.6,71.8,30.24,SE,133,3.0,5.0,70,0.00,,,0.00,0,Wunderground v.1.15,2013-07-03 14:14:00,
2013-07-03 10:18:00,82.8,72.0,30.24,South,184,0.0,5.0,70,0.00,,,0.00,0,Wunderground v.1.15,2013-07-03 14:18:00,
2013-07-03 10:24:00,82.9,71.3,30.24,SSE,158,1.0,6.0,68,0.00,,,0.00,0,Wunderground v.1.15,2013-07-03 14:24:00,
2013-07-03 10:29:00,82.4,71.2,30.24,SSE,159,0.0,6.0,69,0.00,,,0.00,0,Wunderground v.1.15,2013-07-03 14:29:00,
2013-07-03 10:30:00,82.4,70.8,30.24,SSE,159,3.0,3.0,68,0.00,,,0.00,0,Wunderground v.1.15,2013-07-03 14:30:00,
2013-07-03 10:36:00,82.6,71.4,30.24,SSW,210,3.0,6.0,69,0.00,,,0.00,0,Wunderground v.1.15,2013-07-03 14:36:00,
2013-07-03 10:38:00,82.8,71.2,30.24,WNW,299,2.0,6.0,68,0.00,,,0.00,0,Wunderground v.1.15,2013-07-03 14:38:00,
2013-07-03 10:41:00,82.7,71.1,30.24,SSW,206,1.0,3.0,68,0.00,,,0.00,0,Wunderground v.1.15,2013-07-03 14:41:00,
2013-07-03 10:47:00,83.2,71.1,30.24,SSE,161,3.0,7.0,67,0.00,,,0.00,0,Wunderground v.1.15,2013-07-03 14:47:00,
2013-07-03 10:51:00,83.6,71.9,30.24,SE,137,0.0,7.0,68,0.00,,,0.00,0,Wunderground v.1.15,2013-07-03 14:51:00,
2013-07-03 10:56:00,83.7,71.1,30.24,WNW,300,2.0,8.0,66,0.00,,,0.00,0,Wunderground v.1.15,2013-07-03 14:56:00,
2013-07-03 10:58:00,83.5,70.9,30.24,SW,221,0.0,8.0,66,0.00,,,0.00,0,Wunderground v.1.15,2013-07-03 14:58:00,
2013-07-03 11:04:00,82.9,70.8,30.24,South,174,1.0,3.0,67,0.00,,,0.00,0,Wunderground v.1.15,2013-07-03 15:04:00,
2013-07-03 11:10:00,83.0,71.3,30.23,South,183,2.0,2.0,68,0.00,,,0.00,0,Wunderground v.1.15,2013-07-03 15:10:00,
2013-07-03 11:15:00,83.2,71.5,30.23,South,187,0.0,3.0,68,0.00,,,0.00,0,Wunderground v.1.15,2013-07-03 15:15:00,
2013-07-03 11:16:00,83.4,71.7,30.23,South,188,0.0,3.0,68,0.00,,,0.00,0,Wunderground v.1.15,2013-07-03 15:16:00,
2013-07-03 11:21:00,83.1,71.4,30.23,South,188,0.0,3.0,68,0.00,,,0.00,0,Wunderground v.1.15,2013-07-03 15:21:00,
2013-07-03 11:26:00,83.5,71.4,30.23,SSW,204,2.0,4.0,67,0.00,,,0.00,0,Wunderground v.1.15,2013-07-03 15:26:00,
2013-07-03 11:29:00,83.7,71.1,30.23,SSW,204,2.0,4.0,66,0.00,,,0.00,0,Wunderground v.1.15,2013-07-03 15:29:00,
2013-07-03 11:34:00,84.2,71.6,30.23,SSW,194,1.0,3.0,66,0.00,,,0.00,0,Wunderground v.1.15,2013-07-03 15:34:00,
2013-07-03 11:39:00,84.4,72.7,30.22,East,100,1.0,4.0,68,0.00,,,0.00,0,Wunderground v.1.15,2013-07-03 15:39:00,
2013-07-03 11:40:00,84.5,72.8,30.22,ESE,114,5.0,5.0,68,0.00,,,0.00,0,Wunderground v.1.15,2013-07-03 15:40:00,
2013-07-03 11:45:00,83.9,72.6,30.22,ESE,111,5.0,7.0,69,0.00,,,0.00,0,Wunderground v.1.15,2013-07-03 15:45:00,
2013-07-03 11:51:00,82.2,71.9,30.22,SE,145,5.0,5.0,71,0.00,,,0.00,0,Wunderground v.1.15,2013-07-03 15:51:00,
2013-07-03 11:52:00,81.9,72.0,30.22,East,99,6.0,6.0,72,0.00,,,0.00,0,Wunderground v.1.15,2013-07-03 15:52:00,
2013-07-03 11:57:00,80.1,71.8,30.25,NW,309,5.0,6.0,76,0.00,,,0.00,0,Wunderground v.1.15,2013-07-03 15:57:00,
2013-07-03 12:02:00,78.7,71.3,30.24,East,79,4.0,5.0,78,0.00,,,0.00,0,Wunderground v.1.15,2013-07-03 16:02:00,
2013-07-03 12:08:00,77.4,70.7,30.24,SSE,150,1.0,6.0,80,0.00,,,0.00,0,Wunderground v.1.15,2013-07-03 16:08:00,
2013-07-03 12:13:00,77.5,71.6,30.24,SSE,150,0.0,0.0,82,0.00,,,0.00,0,Wunderground v.1.15,2013-07-03 16:13:00,
2013-07-03 12:18:00,78.3,73.1,30.24,SSE,149,3.0,4.0,84,0.00,,,0.00,0,Wunderground v.1.15,2013-07-03 16:18:00,
2013-07-03 12:24:00,78.5,72.9,30.24,ESE,118,7.0,8.0,83,0.00,,,0.00,0,Wunderground v.1.15,2013-07-03 16:24:00,
2013-07-03 12:29:00,78.6,73.7,30.24,ESE,123,0.0,8.0,85,0.00,,,0.00,0,Wunderground v.1.15,2013-07-03 16:29:00,
2013-07-03 12:34:00,78.9,73.7,30.23,ESE,106,2.0,7.0,84,0.00,,,0.00,0,Wunderground v.1.15,2013-07-03 16:34:00,
2013-07-03 12:39:00,79.1,74.2,30.23,SE,133,4.0,9.0,85,0.00,,,0.00,0,Wunderground v.1.15,2013-07-03 16:39:00,
2013-07-03 12:44:00,78.9,73.7,30.23,SE,128,1.0,6.0,84,0.00,,,0.00,0,Wunderground v.1.15,2013-07-03 16:44:00,
2013-07-03 12:50:00,78.5,73.3,30.23,SE,127,2.0,2.0,84,0.00,,,0.00,0,Wunderground v.1.15,2013-07-03 16:50:00,
2013-07-03 12:55:00,78.6,73.4,30.22,SE,127,3.0,7.0,84,0.00,,,0.00,0,Wunderground v.1.15,2013-07-03 16:55:00,
2013-07-03 13:01:00,78.1,72.9,30.22,ESE,113,2.0,5.0,84,0.00,,,0.00,0,Wunderground v.1.15,2013-07-03 17:01:00,
2013-07-03 13:07:00,78.0,72.8,30.23,SE,128,4.0,8.0,84,0.00,,,0.00,0,Wunderground v.1.15,2013-07-03 17:07:00,
2013-07-03 13:12:00,77.6,72.0,30.23,North,357,3.0,9.0,83,0.00,,,0.00,0,Wunderground v.1.15,2013-07-03 17:12:00,
2013-07-03 13:17:00,76.9,71.7,30.24,WNW,296,4.0,9.0,84,0.00,,,0.00,0,Wunderground v.1.15,2013-07-03 17:17:00,
2013-07-03 13:22:00,76.6,71.4,30.24,WNW,291,2.0,3.0,84,0.00,,,0.00,0,Wunderground v.1.15,2013-07-03 17:22:00,
2013-07-03 13:27:00,76.5,71.3,30.24,WNW,291,4.0,4.0,84,0.00,,,0.00,0,Wunderground v.1.15,2013-07-03 17:27:00,
2013-07-03 13:33:00,76.2,71.0,30.24,WNW,294,1.0,3.0,84,0.00,,,0.00,0,Wunderground v.1.15,2013-07-03 17:33:00,
2013-07-03 13:39:00,76.1,71.3,30.23,WNW,294,0.0,3.0,85,0.00,,,0.00,0,Wunderground v.1.15,2013-07-03 17:39:00,
2013-07-03 13:44:00,76.3,71.5,30.23,WNW,295,0.0,2.0,85,0.00,,,0.00,0,Wunderground v.1.15,2013-07-03 17:44:00,
2013-07-03 13:49:00,76.4,71.6,30.23,WNW,294,0.0,2.0,85,0.00,,,0.00,0,Wunderground v.1.15,2013-07-03 17:49:00,
2013-07-03 13:55:00,76.6,71.7,30.22,North,355,0.0,4.0,85,0.00,,,0.00,0,Wunderground v.1.15,2013-07-03 17:55:00,
2013-07-03 14:00:00,76.6,71.7,30.23,North,355,0.0,0.0,85,0.00,,,0.00,0,Wunderground v.1.15,2013-07-03 18:00:00,
2013-07-03 14:05:00,76.9,72.4,30.22,North,359,0.0,3.0,86,0.00,,,0.00,0,Wunderground v.1.15,2013-07-03 18:05:00,
2013-07-03 14:11:00,77.6,73.1,30.22,North,359,0.0,1.0,86,0.00,,,0.00,0,Wunderground v.1.15,2013-07-03 18:11:00,
2013-07-03 14:16:00,77.1,72.6,30.22,NE,41,0.0,4.0,86,0.00,,,0.00,0,Wunderground v.1.15,2013-07-03 18:16:00,
2013-07-03 14:21:00,76.9,72.0,30.22,NE,43,0.0,1.0,85,0.00,,,0.00,0,Wunderground v.1.15,2013-07-03 18:21:00,
2013-07-03 14:26:00,76.8,72.3,30.22,NE,43,1.0,4.0,86,0.00,,,0.00,0,Wunderground v.1.15,2013-07-03 18:26:00,
2013-07-03 14:31:00,76.5,72.0,30.21,NE,43,0.0,0.0,86,0.00,,,0.00,0,Wunderground v.1.15,2013-07-03 18:31:00,
2013-07-03 14:36:00,76.9,72.4,30.21,NE,43,1.0,1.0,86,0.00,,,0.00,0,Wunderground v.1.15,2013-07-03 18:36:00,
2013-07-03 14:41:00,77.3,73.1,30.20,NE,43,0.0,2.0,87,0.00,,,0.00,0,Wunderground v.1.15,2013-07-03 18:41:00,
2013-07-03 14:47:00,77.5,73.0,30.21,NE,43,0.0,2.0,86,0.00,,,0.00,0,Wunderground v.1.15,2013-07-03 18:47:00,
2013-07-03 14:52:00,77.5,73.0,30.20,NE,43,0.0,1.0,86,0.00,,,0.00,0,Wunderground v.1.15,2013-07-03 18:52:00,
2013-07-03 14:57:00,77.9,73.7,30.20,NE,43,0.0,1.0,87,0.00,,,0.00,0,Wunderground v.1.15,2013-07-03 18:57:00,
2013-07-03 15:03:00,78.6,74.4,30.20,NE,43,0.0,0.0,87,0.00,,,0.00,0,Wunderground v.1.15,2013-07-03 19:03:00,
2013-07-03 15:08:00,79.6,75.4,30.19,NE,43,0.0,1.0,87,0.00,,,0.00,0,Wunderground v.1.15,2013-07-03 19:08:00,
2013-07-03 15:14:00,80.7,76.1,30.19,NE,43,0.0,3.0,86,0.00,,,0.00,0,Wunderground v.1.15,2013-07-03 19:14:00,
2013-07-03 15:19:00,80.7,75.8,30.19,NE,44,0.0,4.0,85,0.00,,,0.00,0,Wunderground v.1.15,2013-07-03 19:19:00,
2013-07-03 15:24:00,81.6,76.6,30.19,NE,44,3.0,3.0,85,0.00,,,0.00,0,Wunderground v.1.15,2013-07-03 19:24:00,
2013-07-03 15:29:00,82.0,76.3,30.19,ESE,116,1.0,9.0,83,0.00,,,0.00,0,Wunderground v.1.15,2013-07-03 19:29:00,
2013-07-03 15:34:00,81.9,75.9,30.18,SE,128,3.0,4.0,82,0.00,,,0.00,0,Wunderground v.1.15,2013-07-03 19:34:00,
2013-07-03 15:40:00,81.5,75.1,30.18,ESE,112,2.0,2.0,81,0.00,,,0.00,0,Wunderground v.1.15,2013-07-03 19:40:00,
2013-07-03 15:45:00,81.5,75.1,30.18,ESE,123,1.0,4.0,81,0.00,,,0.00,0,Wunderground v.1.15,2013-07-03 19:45:00,
2013-07-03 15:50:00,81.4,74.6,30.18,ESE,122,1.0,1.0,80,0.00,,,0.00,0,Wunderground v.1.15,2013-07-03 19:50:00,
2013-07-03 15:55:00,82.1,75.3,30.18,SE,139,1.0,4.0,80,0.00,,,0.00,0,Wunderground v.1.15,2013-07-03 19:55:00,
2013-07-03 16:00:00,82.8,75.2,30.18,ESE,117,7.0,7.0,78,0.00,,,0.00,0,Wunderground v.1.15,2013-07-03 20:00:00,
2013-07-03 16:06:00,82.9,74.9,30.18,ESE,119,4.0,7.0,77,0.00,,,0.00,0,Wunderground v.1.15,2013-07-03 20:06:00,
2013-07-03 16:11:00,83.0,74.6,30.18,ESE,108,6.0,6.0,76,0.00,,,0.00,0,Wunderground v.1.15,2013-07-03 20:11:00,
2013-07-03 16:16:00,83.1,74.4,30.18,ESE,103,1.0,10.0,75,0.00,,,0.00,0,Wunderground v.1.15,2013-07-03 20:16:00,
2013-07-03 16:21:00,83.6,74.4,30.18,South,173,2.0,8.0,74,0.00,,,0.00,0,Wunderground v.1.15,2013-07-03 20:21:00,
2013-07-03 16:26:00,83.2,74.0,30.18,ESE,112,2.0,8.0,74,0.00,,,0.00,0,Wunderground v.1.15,2013-07-03 20:26:00,
2013-07-03 16:31:00,83.3,74.1,30.17,ESE,106,1.0,7.0,74,0.00,,,0.00,0,Wunderground v.1.15,2013-07-03 20:31:00,
2013-07-03 16:37:00,83.1,73.5,30.17,ESE,122,3.0,7.0,73,0.00,,,0.00,0,Wunderground v.1.15,2013-07-03 20:37:00,
2013-07-03 16:42:00,82.8,74.1,30.18,SE,142,0.0,5.0,75,0.00,,,0.00,0,Wunderground v.1.15,2013-07-03 20:42:00,
2013-07-03 16:48:00,82.9,73.4,30.17,SSE,155,3.0,11.0,73,0.00,,,0.00,0,Wunderground v.1.15,2013-07-03 20:48:00,
2013-07-03 16:54:00,82.9,72.9,30.18,ESE,104,5.0,7.0,72,0.00,,,0.00,0,Wunderground v.1.15,2013-07-03 20:54:00,
2013-07-03 16:59:00,83.3,72.9,30.17,SE,131,3.0,9.0,71,0.00,,,0.00,0,Wunderground v.1.15,2013-07-03 20:59:00,
2013-07-03 17:04:00,83.6,73.2,30.17,South,187,1.0,7.0,71,0.00,,,0.00,0,Wunderground v.1.15,2013-07-03 21:04:00,
2013-07-03 17:09:00,84.1,73.3,30.18,ESE,115,3.0,7.0,70,0.00,,,0.00,0,Wunderground v.1.15,2013-07-03 21:09:00,
2013-07-03 17:15:00,84.2,73.3,30.18,NE,43,4.0,8.0,70,0.00,,,0.00,0,Wunderground v.1.15,2013-07-03 21:15:00,
2013-07-03 17:20:00,84.1,72.8,30.18,ESE,115,4.0,4.0,69,0.00,,,0.00,0,Wunderground v.1.15,2013-07-03 21:20:00,
2013-07-03 17:25:00,84.0,72.3,30.18,ESE,118,5.0,11.0,68,0.00,,,0.00,0,Wunderground v.1.15,2013-07-03 21:25:00,
2013-07-03 17:30:00,84.1,72.4,30.17,ESE,118,9.0,9.0,68,0.00,,,0.00,0,Wunderground v.1.15,2013-07-03 21:30:00,
2013-07-03 17:35:00,84.2,72.0,30.17,ESE,121,8.0,9.0,67,0.00,,,0.00,0,Wunderground v.1.15,2013-07-03 21:35:00,
2013-07-03 17:40:00,84.3,72.6,30.17,SSE,154,8.0,8.0,68,0.00,,,0.00,0,Wunderground v.1.15,2013-07-03 21:40:00,
2013-07-03 17:45:00,84.3,72.6,30.17,SE,146,0.0,9.0,68,0.00,,,0.00,0,Wunderground v.1.15,2013-07-03 21:45:00,
2013-07-03 17:50:00,84.4,72.7,30.17,SE,128,2.0,2.0,68,0.00,,,0.00,0,Wunderground v.1.15,2013-07-03 21:50:00,
2013-07-03 17:56:00,84.1,72.4,30.16,ESE,115,1.0,7.0,68,0.00,,,0.00,0,Wunderground v.1.15,2013-07-03 21:56:00,
2013-07-03 18:01:00,84.2,72.5,30.17,ESE,116,1.0,4.0,68,0.00,,,0.00,0,Wunderground v.1.15,2013-07-03 22:01:00,
2013-07-03 18:06:00,84.0,71.4,30.17,East,90,1.0,8.0,66,0.00,,,0.00,0,Wunderground v.1.15,2013-07-03 22:06:00,
2013-07-03 18:12:00,84.0,71.9,30.17,SE,127,2.0,5.0,67,0.00,,,0.00,0,Wunderground v.1.15,2013-07-03 22:12:00,
2013-07-03 18:17:00,84.5,72.8,30.17,SE,144,0.0,5.0,68,0.00,,,0.00,0,Wunderground v.1.15,2013-07-03 22:17:00,
2013-07-03 18:22:00,84.2,72.0,30.17,SSE,158,5.0,5.0,67,0.00,,,0.00,0,Wunderground v.1.15,2013-07-03 22:22:00,
2013-07-03 18:27:00,83.8,72.1,30.17,ESE,109,0.0,7.0,68,0.00,,,0.00,0,Wunderground v.1.15,2013-07-03 22:27:00,
2013-07-03 18:32:00,83.7,72.0,30.17,South,176,0.0,7.0,68,0.00,,,0.00,0,Wunderground v.1.15,2013-07-03 22:32:00,
2013-07-03 18:37:00,83.2,71.5,30.17,SE,127,3.0,7.0,68,0.00,,,0.00,0,Wunderground v.1.15,2013-07-03 22:37:00,
2013-07-03 18:44:00,82.0,71.2,30.17,SE,131,0.0,7.0,70,0.00,,,0.00,0,Wunderground v.1.15,2013-07-03 22:44:00,
2013-07-03 18:49:00,81.5,71.2,30.18,SE,146,0.0,7.0,71,0.00,,,0.00,0,Wunderground v.1.15,2013-07-03 22:49:00,
2013-07-03 18:54:00,81.0,70.7,30.17,SSE,166,6.0,6.0,71,0.00,,,0.00,0,Wunderground v.1.15,2013-07-03 22:54:00,
2013-07-03 18:59:00,80.8,70.5,30.18,SSE,151,3.0,6.0,71,0.00,,,0.00,0,Wunderground v.1.15,2013-07-03 22:59:00,
2013-07-03 19:05:00,80.7,70.8,30.18,South,186,3.0,5.0,72,0.00,,,0.00,0,Wunderground v.1.15,2013-07-03 23:05:00,
2013-07-03 19:10:00,80.7,70.4,30.18,SSE,161,5.0,5.0,71,0.00,,,0.00,0,Wunderground v.1.15,2013-07-03 23:10:00,
2013-07-03 19:15:00,80.5,70.6,30.18,SE,125,1.0,5.0,72,0.00,,,0.00,0,Wunderground v.1.15,2013-07-03 23:15:00,
2013-07-03 19:20:00,80.3,70.0,30.18,South,173,2.0,5.0,71,0.00,,,0.00,0,Wunderground v.1.15,2013-07-03 23:20:00,
2013-07-03 19:26:00,80.1,70.3,30.18,SE,145,3.0,5.0,72,0.00,,,0.00,0,Wunderground v.1.15,2013-07-03 23:26:00,
2013-07-03 19:31:00,79.9,70.5,30.18,SE,145,0.0,1.0,73,0.00,,,0.00,0,Wunderground v.1.15,2013-07-03 23:31:00,
2013-07-03 19:37:00,79.6,70.6,30.18,South,187,3.0,5.0,74,0.00,,,0.00,0,Wunderground v.1.15,2013-07-03 23:37:00,
2013-07-03 19:42:00,79.4,70.8,30.18,SSE,168,0.0,4.0,75,0.00,,,0.00,0,Wunderground v.1.15,2013-07-03 23:42:00,
2013-07-03 19:47:00,79.3,70.7,30.18,South,170,3.0,5.0,75,0.00,,,0.00,0,Wunderground v.1.15,2013-07-03 23:47:00,
2013-07-03 19:52:00,79.1,70.9,30.19,SSE,150,0.0,4.0,76,0.00,,,0.00,0,Wunderground v.1.15,2013-07-03 23:52:00,
2013-07-03 19:57:00,78.9,70.7,30.19,SE,127,2.0,5.0,76,0.00,,,0.00,0,Wunderground v.1.15,2013-07-03 23:57:00,
2013-07-03 20:02:00,78.8,70.6,30.19,ESE,113,1.0,4.0,76,0.00,,,0.00,0,Wunderground v.1.15,2013-07-04 00:02:00,
2013-07-03 20:07:00,78.6,70.4,30.19,ESE,122,0.0,4.0,76,0.00,,,0.00,0,Wunderground v.1.15,2013-07-04 00:07:00,
2013-07-03 20:13:00,78.5,70.7,30.19,ESE,122,2.0,2.0,77,0.00,,,0.00,0,Wunderground v.1.15,2013-07-04 00:13:00,
2013-07-03 20:18:00,78.4,70.6,30.19,ESE,123,0.0,2.0,77,0.00,,,0.00,0,Wunderground v.1.15,2013-07-04 00:18:00,
2013-07-03 20:23:00,78.1,70.7,30.20,ESE,122,0.0,2.0,78,0.00,,,0.00,0,Wunderground v.1.15,2013-07-04 00:23:00,
2013-07-03 20:28:00,77.9,70.5,30.19,ESE,122,0.0,2.0,78,0.00,,,0.00,0,Wunderground v.1.15,2013-07-04 00:28:00,
2013-07-03 20:33:00,77.7,70.3,30.20,ESE,123,0.0,3.0,78,0.00,,,0.00,0,Wunderground v.1.15,2013-07-04 00:33:00,
2013-07-03 20:39:00,77.6,70.6,30.20,SE,126,0.0,3.0,79,0.00,,,0.00,0,Wunderground v.1.15,2013-07-04 00:39:00,
2013-07-03 20:44:00,77.5,70.8,30.20,SE,133,0.0,2.0,80,0.00,,,0.00,0,Wunderground v.1.15,2013-07-04 00:44:00,
2013-07-03 20:49:00,77.5,70.8,30.20,SSE,152,3.0,3.0,80,0.00,,,0.00,0,Wunderground v.1.15,2013-07-04 00:49:00,
2013-07-03 20:55:00,77.3,70.6,30.20,SSE,152,1.0,3.0,80,0.00,,,0.00,0,Wunderground v.1.15,2013-07-04 00:55:00,
2013-07-03 21:00:00,77.1,70.5,30.20,SSE,163,0.0,0.0,80,0.00,,,0.00,0,Wunderground v.1.15,2013-07-04 01:00:00,
2013-07-03 21:06:00,77.2,70.5,30.20,SSE,162,0.0,2.0,80,0.00,,,0.00,0,Wunderground v.1.15,2013-07-04 01:06:00,
2013-07-03 21:11:00,77.0,70.7,30.20,SSE,162,0.0,1.0,81,0.00,,,0.00,0,Wunderground v.1.15,2013-07-04 01:11:00,
2013-07-03 21:16:00,77.0,70.7,30.21,SSE,162,0.0,1.0,81,0.00,,,0.00,0,Wunderground v.1.15,2013-07-04 01:16:00,
2013-07-03 21:21:00,76.7,70.4,30.21,SSE,162,1.0,1.0,81,0.00,,,0.00,0,Wunderground v.1.15,2013-07-04 01:21:00,
2013-07-03 21:26:00,76.7,70.4,30.21,SSE,162,0.0,3.0,81,0.00,,,0.00,0,Wunderground v.1.15,2013-07-04 01:26:00,
2013-07-03 21:31:00,76.4,70.1,30.22,SSE,164,0.0,1.0,81,0.00,,,0.00,0,Wunderground v.1.15,2013-07-04 01:31:00,
2013-07-03 21:37:00,76.4,70.1,30.22,SSE,164,2.0,2.0,81,0.00,,,0.00,0,Wunderground v.1.15,2013-07-04 01:37:00,
2013-07-03 21:42:00,76.4,70.1,30.22,SSE,160,0.0,4.0,81,0.00,,,0.00,0,Wunderground v.1.15,2013-07-04 01:42:00,
2013-07-03 21:47:00,76.4,70.5,30.22,SSE,159,0.0,4.0,82,0.00,,,0.00,0,Wunderground v.1.15,2013-07-04 01:47:00,
2013-07-03 21:52:00,76.2,70.3,30.22,SSE,167,2.0,5.0,82,0.00,,,0.00,0,Wunderground v.1.15,2013-07-04 01:52:00,
2013-07-03 21:57:00,76.2,70.3,30.22,SSE,167,2.0,5.0,82,0.00,,,0.00,0,Wunderground v.1.15,2013-07-04 01:57:00,
2013-07-03 22:04:00,76.2,70.3,30.22,SSE,164,1.0,3.0,82,0.00,,,0.00,0,Wunderground v.1.15,2013-07-04 02:04:00,
2013-07-03 22:09:00,76.3,70.4,30.22,SE,143,1.0,6.0,82,0.00,,,0.00,0,Wunderground v.1.15,2013-07-04 02:09:00,
2013-07-03 22:15:00,76.2,70.3,30.23,SE,142,0.0,2.0,82,0.00,,,0.00,0,Wunderground v.1.15,2013-07-04 02:15:00,
2013-07-03 22:20:00,76.1,70.2,30.22,SE,127,0.0,0.0,82,0.00,,,0.00,0,Wunderground v.1.15,2013-07-04 02:20:00,
2013-07-03 22:25:00,76.0,70.1,30.22,South,173,0.0,4.0,82,0.00,,,0.00,0,Wunderground v.1.15,2013-07-04 02:25:00,
2013-07-03 22:30:00,76.0,70.5,30.22,South,173,4.0,4.0,83,0.00,,,0.00,0,Wunderground v.1.15,2013-07-04 02:30:00,
2013-07-03 22:35:00,76.0,70.1,30.23,SSE,148,2.0,4.0,82,0.00,,,0.00,0,Wunderground v.1.15,2013-07-04 02:35:00,
2013-07-03 22:40:00,75.9,70.4,30.22,SE,125,3.0,5.0,83,0.00,,,0.00,0,Wunderground v.1.15,2013-07-04 02:40:00,
2013-07-03 22:45:00,75.9,70.4,30.22,SE,135,0.0,5.0,83,0.00,,,0.00,0,Wunderground v.1.15,2013-07-04 02:45:00,
2013-07-03 22:50:00,76.0,70.5,30.22,SSE,160,2.0,2.0,83,0.00,,,0.00,0,Wunderground v.1.15,2013-07-04 02:50:00,
2013-07-03 22:56:00,75.9,70.0,30.22,South,173,3.0,3.0,82,0.00,,,0.00,0,Wunderground v.1.15,2013-07-04 02:56:00,
2013-07-03 23:01:00,75.9,70.0,30.22,SSE,165,1.0,1.0,82,0.00,,,0.00,0,Wunderground v.1.15,2013-07-04 03:01:00,
2013-07-03 23:06:00,75.8,69.9,30.22,SSW,207,4.0,5.0,82,0.00,,,0.00,0,Wunderground v.1.15,2013-07-04 03:06:00,
2013-07-03 23:11:00,75.8,70.3,30.22,SSW,194,2.0,4.0,83,0.00,,,0.00,0,Wunderground v.1.15,2013-07-04 03:11:00,
2013-07-03 23:16:00,75.8,69.9,30.23,SSE,147,1.0,6.0,82,0.00,,,0.00,0,Wunderground v.1.15,2013-07-04 03:16:00,
2013-07-03 23:21:00,75.8,69.9,30.23,ESE,123,0.0,2.0,82,0.00,,,0.00,0,Wunderground v.1.15,2013-07-04 03:21:00,
2013-07-03 23:27:00,75.7,70.2,30.22,SE,124,0.0,2.0,83,0.00,,,0.00,0,Wunderground v.1.15,2013-07-04 03:27:00,
2013-07-03 23:32:00,75.6,69.7,30.22,SE,131,3.0,3.0,82,0.00,,,0.00,0,Wunderground v.1.15,2013-07-04 03:32:00,
2013-07-03 23:37:00,75.5,70.0,30.23,SE,136,0.0,3.0,83,0.00,,,0.00,0,Wunderground v.1.15,2013-07-04 03:37:00,
2013-07-03 23:42:00,75.5,70.0,30.22,SSE,157,1.0,1.0,83,0.00,,,0.00,0,Wunderground v.1.15,2013-07-04 03:42:00,
2013-07-03 23:47:00,75.4,69.9,30.23,South,178,0.0,3.0,83,0.00,,,0.00,0,Wunderground v.1.15,2013-07-04 03:47:00,
2013-07-03 23:52:00,75.2,69.7,30.23,South,186,0.0,4.0,83,0.00,,,0.00,0,Wunderground v.1.15,2013-07-04 03:52:00,
2013-07-03 23:57:00,75.2,69.7,30.22,SSE,149,6.0,6.0,83,0.00,,,0.00,0,Wunderground v.1.15,2013-07-04 03:57:00,